Newport, Oregon, United States (97365)
Lat: 44.64N, Lon: 124.05W
Wx Zone: ORZ002
Local Info
Past Weather Observations for Today

NOTE: This archive is for the closest National Weather Service station to Newport. Information may differ from the station used for current weather conditions.

Click here for Long-term Archive

Time Weather Temperature Dewpoint Humidity Pressure Winds Precip Visibility
13:35
Clear
79°F / 26°C 50°F / 10°C 37% 29.98 in
(1015 mb)
NNW 13.8 mph
(NNW 22 kph)
- 10SM
13:15
Clear
75°F / 24°C 50°F / 10°C 41% 30.01 in
(1016 mb)
NNW 9.2 mph
(NNW 15 kph)
- 10SM
12:55
Clear
77°F / 25°C 52°F / 11°C 42% 30.01 in
(1016 mb)
NNW 10.4 mph
(NNW 17 kph)
- 10SM
12:35
Clear
75°F / 24°C 52°F / 11°C 44% 30.01 in
(1016 mb)
NNW 8.1 mph
(NNW 13 kph)
- 10SM
12:15
Clear
77°F / 25°C 50°F / 10°C 39% 30.01 in
(1016 mb)
NNW 8.1 mph
(NNW 13 kph)
- 10SM
11:55
Clear
82°F / 28°C 50°F / 10°C 32% 30.01 in
(1016 mb)
NNW 9.2 mph
(NNW 15 kph)
- 10SM
11:35
Clear
81°F / 27°C 46°F / 8°C 30% 30.04 in
(1017 mb)
NNW 9.2 mph
(NNW 15 kph)
- 10SM
11:15
Clear
81°F / 27°C 50°F / 10°C 34% 30.04 in
(1017 mb)
NNW 9.2 mph
(NNW 15 kph)
- 10SM
10:55
Clear
81°F / 27°C 52°F / 11°C 37% 30.04 in
(1017 mb)
NNW 8.1 mph
(NNW 13 kph)
- 10SM
10:35
Clear
86°F / 30°C 50°F / 10°C 29% 30.04 in
(1017 mb)
E 8.1 mph
(E 13 kph)
- 10SM
10:15
Clear
86°F / 30°C 50°F / 10°C 29% 30.04 in
(1017 mb)
E 6.9 mph
(E 11 kph)
- 10SM
09:55
Clear
82°F / 28°C 50°F / 10°C 32% 30.06 in
(1018 mb)
E 9.2 mph
(E 15 kph)
- 10SM
09:35
Clear
81°F / 27°C 50°F / 10°C 34% 30.06 in
(1018 mb)
E 6.9 mph
(E 11 kph)
- 10SM
09:15
Clear
79°F / 26°C 52°F / 11°C 39% 30.06 in
(1018 mb)
E 9.2 mph
(E 15 kph)
- 10SM
08:55
Clear
77°F / 25°C 52°F / 11°C 42% 30.06 in
(1018 mb)
E 9.2 mph
(E 15 kph)
- 10SM
08:35
Clear
75°F / 24°C 52°F / 11°C 44% 30.06 in
(1018 mb)
E 9.2 mph
(E 15 kph)
- 10SM
08:15
Clear
73°F / 23°C 52°F / 11°C 47% 30.06 in
(1018 mb)
E 5.8 mph
(E 9 kph)
- 10SM
07:55
Clear
72°F / 22°C 52°F / 11°C 50% 30.06 in
(1018 mb)
E 6.9 mph
(E 11 kph)
- 10SM
07:35
Clear
70°F / 21°C 52°F / 11°C 53% 30.06 in
(1018 mb)
E 6.9 mph
(E 11 kph)
- 10SM
07:15
Clear
68°F / 20°C 52°F / 11°C 56% 30.06 in
(1018 mb)
E 8.1 mph
(E 13 kph)
- 10SM
06:55
Clear
64°F / 18°C 52°F / 11°C 64% 30.06 in
(1018 mb)
E 6.9 mph
(E 11 kph)
- 10SM
06:35
Clear
63°F / 17°C 52°F / 11°C 68% 30.06 in
(1018 mb)
ENE 8.1 mph
(ENE 13 kph)
- 10SM
06:15
Clear
61°F / 16°C 52°F / 11°C 72% 30.06 in
(1018 mb)
ENE 9.2 mph
(ENE 15 kph)
- 10SM
05:55
Clear
59°F / 15°C 52°F / 11°C 77% 30.06 in
(1018 mb)
ENE 8.1 mph
(ENE 13 kph)
- 10SM
05:35
Clear
54°F / 12°C 50°F / 10°C 88% 30.06 in
(1018 mb)
ENE 8.1 mph
(ENE 13 kph)
- 10SM
05:15
Clear
55°F / 13°C 52°F / 11°C 88% 30.06 in
(1018 mb)
ENE 5.8 mph
(ENE 9 kph)
- 10SM
04:55
Clear
55°F / 13°C 52°F / 11°C 88% 30.06 in
(1018 mb)
NE 6.9 mph
(NE 11 kph)
- 10SM
04:35
Clear
57°F / 14°C 52°F / 11°C 82% 30.06 in
(1018 mb)
NE 9.2 mph
(NE 15 kph)
- 10SM
04:15
Clear
55°F / 13°C 52°F / 11°C 88% 30.06 in
(1018 mb)
ENE 4.6 mph
(ENE 7 kph)
- 10SM
03:55
Clear
55°F / 13°C 52°F / 11°C 88% 30.06 in
(1018 mb)
NE 5.8 mph
(NE 9 kph)
- 10SM
03:35
Clear
55°F / 13°C 52°F / 11°C 88% 30.06 in
(1018 mb)
ENE 5.8 mph
(ENE 9 kph)
- 10SM
03:15
Clear
55°F / 13°C 52°F / 11°C 88% 30.06 in
(1018 mb)
NNE 3.5 mph
(NNE 6 kph)
- 10SM
02:55
Clear
59°F / 15°C 54°F / 12°C 82% 30.06 in
(1018 mb)
E 6.9 mph
(E 11 kph)
- 10SM
02:35
Clear
55°F / 13°C 54°F / 12°C 94% 30.06 in
(1018 mb)
E 5.8 mph
(E 9 kph)
- 10SM
02:15
Clear
55°F / 13°C 54°F / 12°C 94% 30.06 in
(1018 mb)
E 3.5 mph
(E 6 kph)
- 10SM
01:55
Clear
57°F / 14°C 54°F / 12°C 88% 30.06 in
(1018 mb)
E 5.8 mph
(E 9 kph)
- 10SM
01:35
Clear
55°F / 13°C 54°F / 12°C 94% 30.06 in
(1018 mb)
Calm - 10SM
01:15
Clear
55°F / 13°C 52°F / 11°C 88% 30.06 in
(1018 mb)
Calm - 10SM
00:55
Clear
61°F / 16°C 55°F / 13°C 83% 30.06 in
(1018 mb)
Calm - 10SM
00:35
Clear
59°F / 15°C 54°F / 12°C 82% 30.06 in
(1018 mb)
ENE 3.5 mph
(ENE 6 kph)
- 10SM
00:15
Clear
59°F / 15°C 54°F / 12°C 82% 30.06 in
(1018 mb)
Calm - 10SM
Time Weather Temperature Dewpoint Humidity Pressure Winds Precip Visibility


Weather for websites

WeatherForYou.com, LLC is not responsible for any damages or problems caused by this service. Current weather conditions are obtained from the closest station including government and personal stations which may have varying degrees of accuracy. Weather forecasts are derived from the NOAA NDFD. Like all things, this site belongs to Jesus Christ... He just trusts us to maintain it. If you have any questions or comments email webmaster@weatherforyou.com

Copyright © 2016, WeatherForYou.com LLC. All rights reserved.